Regional Weather Roundup
Issued by NWS

Home | Current Version | Previous Version | Graphics & Text | Print | Product List | Glossary On
Versions: 1 2 3 4 5 6 7 8 9 10 11 12 13 14 15 16 17 18 19 20 21 22 23 24 25 26 27 28 29 30 31 32 33 34 35 36 37 38 39 40 41 42 43 44 45 46 47 48 49 50
894
ASUS43 KBIS 142102
RWRND

NORTH DAKOTA REGIONAL WEATHER ROUNDUP
NATIONAL WEATHER SERVICE BISMARCK ND
300 PM CST THU DEC 14 2017

NOTE: "FAIR" INDICATES FEW OR NO CLOUDS BELOW 12,000 FEET WITH NO
SIGNIFICANT WEATHER AND/OR OBSTRUCTIONS TO VISIBILITY.


NDZ001>003-009>011-017-142200-
NORTHWEST NORTH DAKOTA

CITY           SKY/WX    TMP DP  RH WIND       PRES   REMARKS
WILLISTON      CLOUDY    37  24  59 NW16G25   30.15F
MINOT          CLOUDY    35  27  72 W13       30.06F
$$

NDZ018>021-031>035-040>046-142200-
SOUTHWEST NORTH DAKOTA

CITY           SKY/WX    TMP DP  RH WIND       PRES   REMARKS
BISMARCK       CLOUDY    35  25  66 NW8       30.12S
DICKINSON      PTSUNNY   32  24  72 NW16      30.12F
GARRISON         N/A     34  24  67 NW18      30.08F
HETTINGER ARPT CLOUDY    35  24  64 NW20G28   30.16F
$$

NDZ004>008-012>016-024-026-027-054-142200-
NORTHEAST NORTH DAKOTA

CITY           SKY/WX    TMP DP  RH WIND       PRES   REMARKS
GRAND FORKS    FLURRIES  21  17  84 N7        30.06S WCI  12
GRND FRKS AFB  CLOUDY    23  17  75 NE7       30.05S WCI  15
DEVILS LAKE    FLURRIES  28  24  85 NW12      30.03S WCI  18
$$

NDZ022-023-025-028>030-036>039-047>053-142200-
SOUTHEAST NORTH DAKOTA

CITY           SKY/WX    TMP DP  RH WIND       PRES   REMARKS
FARGO          CLOUDY    24  19  81 NW8       30.07F WCI  15
JAMESTOWN      CLOUDY    28  24  85 NW13      30.04F WCI  17
$$





USA.gov is the U.S. government's official web portal to all federal, state and local government web resources and services.